Starlink 11635

operational
NORAD ID: 63193 Int'l Des: 2025-048 Owner: SPXS Country: US Constellation: starlink
LEOCIRCULAR

关于 Starlink 11635

正在加载描述...

实时位置

正在加载3D地球...

即将过境

高度历史

Altitude vs Time

uPlot chart will show altitude changes over time

两行轨道根数

1 63193U 25048L 25351.34499739 .00185063 00000-0 14035-2 0 9993
2 63193 43.0008 95.9572 0000662 199.2829 160.8014 15.71014870 45575
Epoch: Dec 17, 2025 • Age: 12 hours

当前状态

高度 355.3 km
速度 7.70 km/s
星下点 2.65°N, 61.46°E
发射日期 Mar 13, 2025
运行时间 0.7 years
类型 internet

技术详情

分类 Payload
质量 960.00 kg
干质量 910.00 kg
总质量 960.00 kg
长度 0.30 m
直径 4.10 m
跨度 29.00 m
形状 Box + pan
制造商 SPXS
平台类型 Starlink V2MD
阶段状态 In Orbit
所有者/国家 SPXS/US

大型星座

Loading constellations...